Atmospheric History
12/06/2017 18:35  to  12/7/2017 18:35
Change End Date:
To complete the export process:
1) Select all of the data below
2) Copy the data to the clipboard
3) Open a word processor such as Notepad
4) Paste the data into the word processor
5) Save the file

Date/Time (MDT), AirTemp, RH, Dewpoint ,AvgWindSpeed, GustWindSpeed, WindDirection, PrecipType, PrecipIntensity, PrecipAccumulation, PrecipRate
12/07/2017 18:34, 29, 56, 16 ,39, 46, S, None, None, ,  
12/07/2017 18:24, 30, 56, 16 ,39, 46, S, None, None, ,  
12/07/2017 18:23, 29, 56, 16 ,39, 46, S, None, None, ,  
12/07/2017 18:14, 30, 54, 16 ,37, 45, S, None, None, ,  
12/07/2017 18:08, 30, 54, 16 ,37, 43, S, None, None, ,  
12/07/2017 18:04, 31, 54, 16 ,35, 43, S, None, None, ,  
12/07/2017 17:54, 30, 55, 16 ,35, 43, S, None, None, ,  
12/07/2017 17:53, 30, 55, 16 ,35, 43, S, None, None, ,  
12/07/2017 17:43, 30, 55, 16 ,37, 45, S, None, None, ,  
12/07/2017 17:38, 30, 55, 16 ,36, 45, S, None, None, ,  
12/07/2017 17:33, 30, 56, 16 ,38, 45, S, None, None, ,  
12/07/2017 17:23, 30, 55, 16 ,38, 47, S, None, None, ,  
12/07/2017 17:23, 30, 56, 16 ,37, 43, S, None, None, ,  
12/07/2017 17:13, 31, 54, 16 ,34, 43, S, None, None, ,  
12/07/2017 17:08, 30, 55, 16 ,35, 44, S, None, None, ,  
12/07/2017 17:03, 30, 55, 16 ,37, 45, S, None, None, ,  
12/07/2017 16:53, 30, 56, 16 ,37, 47, S, None, None, ,  
12/07/2017 16:52, 30, 55, 16 ,35, 43, S, None, None, ,  
12/07/2017 16:43, 31, 54, 16 ,38, 47, S, None, None, ,  
12/07/2017 16:37, 31, 54, 16 ,37, 47, S, None, None, ,  
12/07/2017 16:33, 31, 54, 16 ,36, 43, S, None, None, ,  
12/07/2017 16:23, 31, 53, 16 ,36, 43, S, None, None, ,  
12/07/2017 16:22, 31, 53, 16 ,35, 43, S, None, None, ,  
12/07/2017 16:13, 32, 51, 16 ,35, 45, S, None, None, ,  
12/07/2017 16:08, 33, 49, 16 ,34, 42, S, None, None, ,  
12/07/2017 16:03, 33, 50, 16 ,37, 42, S, None, None, ,  
12/07/2017 15:53, 33, 49, 16 ,35, 40, S, None, None, ,  
12/07/2017 15:53, 33, 50, 16 ,35, 40, S, None, None, ,  
12/07/2017 15:43, 33, 50, 17 ,35, 43, S, None, None, ,  
12/07/2017 15:38, 33, 51, 17 ,34, 43, S, None, None, ,  
12/07/2017 15:33, 33, 49, 17 ,33, 43, S, None, None, ,  
12/07/2017 15:23, 33, 50, 17 ,34, 43, S, None, None, ,  
12/07/2017 15:23, 33, 50, 17 ,34, 43, S, None, None, ,  
12/07/2017 15:13, 34, 49, 17 ,34, 42, S, None, None, ,  
12/07/2017 15:08, 34, 49, 17 ,35, 42, S, None, None, ,  
12/07/2017 15:03, 34, 48, 17 ,35, 41, S, None, None, ,  
12/07/2017 14:53, 35, 47, 17 ,34, 42, S, None, None, ,  
12/07/2017 14:53, 35, 47, 17 ,34, 42, S, None, None, ,  
12/07/2017 14:43, 35, 47, 17 ,34, 41, S, None, None, ,  
12/07/2017 14:38, 35, 47, 17 ,34, 39, S, None, None, ,  
12/07/2017 14:33, 35, 46, 17 ,30, 42, S, None, None, ,  
12/07/2017 14:23, 37, 43, 16 ,30, 38, S, None, None, ,  
12/07/2017 14:23, 37, 43, 16 ,30, 38, S, None, None, ,  
12/07/2017 14:13, 35, 46, 17 ,29, 40, S, None, None, ,  
12/07/2017 14:08, 35, 46, 17 ,34, 40, S, None, None, ,  
12/07/2017 14:03, 36, 45, 17 ,32, 38, S, None, None, ,  
12/07/2017 13:53, 35, 46, 17 ,30, 38, S, None, None, ,  
12/07/2017 13:53, 35, 46, 17 ,30, 38, S, None, None, ,  
12/07/2017 13:43, 36, 44, 17 ,33, 39, S, None, None, ,  
12/07/2017 13:38, 36, 44, 17 ,32, 39, S, None, None, ,  
12/07/2017 13:33, 36, 45, 17 ,32, 38, S, None, None, ,  
12/07/2017 13:23, 37, 43, 17 ,32, 42, S, None, None, ,  
12/07/2017 13:23, 37, 43, 17 ,32, 42, S, None, None, ,  
12/07/2017 13:13, 36, 45, 17 ,35, 40, S, None, None, ,  
12/07/2017 13:08, 36, 44, 17 ,31, 39, S, None, None, ,  
12/07/2017 13:03, 37, 43, 17 ,29, 39, S, None, None, ,  
12/07/2017 12:53, 36, 44, 17 ,30, 38, S, None, None, ,  
12/07/2017 12:53, 36, 44, 17 ,30, 38, S, None, None, ,  
12/07/2017 12:43, 36, 45, 16 ,34, 40, S, None, None, ,  
12/07/2017 12:38, 37, 43, 16 ,30, 38, S, None, None, ,  
12/07/2017 12:33, 36, 44, 17 ,28, 40, S, None, None, ,  
12/07/2017 12:23, 35, 46, 17 ,30, 38, S, None, None, ,  
12/07/2017 12:23, 35, 46, 17 ,30, 39, S, None, None, ,  
12/07/2017 12:13, 35, 45, 17 ,30, 39, S, None, None, ,  
12/07/2017 12:08, 35, 47, 17 ,31, 40, S, None, None, ,  
12/07/2017 12:03, 35, 46, 16 ,30, 40, S, None, None, ,  
12/07/2017 11:53, 35, 47, 17 ,32, 39, S, None, None, ,  
12/07/2017 11:53, 35, 47, 17 ,30, 39, S, None, None, ,  
12/07/2017 11:43, 34, 47, 16 ,32, 40, S, None, None, ,  
12/07/2017 11:38, 35, 46, 16 ,30, 38, S, None, None, ,  
12/07/2017 11:33, 35, 46, 17 ,29, 37, S, None, None, ,  
12/07/2017 11:23, 34, 47, 16 ,30, 36, S, None, None, ,  
12/07/2017 11:23, 34, 47, 16 ,30, 36, S, None, None, ,  
12/07/2017 11:13, 34, 48, 16 ,27, 37, S, None, None, ,  
12/07/2017 11:08, 34, 48, 16 ,30, 37, S, None, None, ,  
12/07/2017 11:03, 34, 47, 16 ,29, 38, S, None, None, ,  
12/07/2017 10:53, 34, 48, 16 ,30, 37, S, None, None, ,  
12/07/2017 10:53, 34, 47, 16 ,29, 37, S, None, None, ,  
12/07/2017 10:42, 34, 48, 16 ,29, 36, S, None, None, ,  
12/07/2017 10:38, 33, 48, 16 ,29, 36, S, None, None, ,  
12/07/2017 10:32, 34, 47, 16 ,28, 32, S, None, None, ,  
12/07/2017 10:23, 33, 49, 16 ,29, 36, S, None, None, ,  
12/07/2017 10:22, 33, 49, 16 ,28, 38, S, None, None, ,  
12/07/2017 10:12, 33, 49, 16 ,30, 38, S, None, None, ,  
12/07/2017 10:08, 32, 50, 16 ,31, 37, S, None, None, ,  
12/07/2017 10:02, 32, 50, 16 ,32, 38, S, None, None, ,  
12/07/2017 09:53, 32, 51, 16 ,31, 37, S, None, None, ,  
12/07/2017 09:52, 32, 51, 16 ,29, 37, S, None, None, ,  
12/07/2017 09:42, 30, 54, 16 ,32, 40, S, None, None, ,  
12/07/2017 09:38, 30, 54, 15 ,33, 40, S, None, None, ,  
12/07/2017 09:32, 30, 55, 15 ,31, 43, S, None, None, ,  
12/07/2017 09:23, 29, 55, 15 ,30, 39, S, None, None, ,  
12/07/2017 09:22, 29, 55, 15 ,31, 39, S, None, None, ,  
12/07/2017 09:12, 28, 57, 15 ,32, 39, S, None, None, ,  
12/07/2017 09:08, 28, 58, 15 ,33, 39, S, None, None, ,  
12/07/2017 09:02, 28, 59, 15 ,32, 39, S, None, None, ,  
12/07/2017 08:53, 27, 59, 15 ,32, 40, S, None, None, ,  
12/07/2017 08:52, 28, 59, 15 ,32, 40, S, None, None, ,  
12/07/2017 08:42, 27, 60, 15 ,33, 42, S, None, None, ,  
12/07/2017 08:39, 27, 61, 15 ,35, 42, S, None, None, ,  
12/07/2017 08:32, 27, 60, 15 ,34, 42, S, None, None, ,  
12/07/2017 08:23, 26, 61, 15 ,33, 42, S, None, None, ,  
12/07/2017 08:22, 26, 61, 15 ,33, 42, S, None, None, ,  
12/07/2017 08:12, 26, 62, 15 ,34, 43, S, None, None, ,  
12/07/2017 08:08, 27, 60, 15 ,35, 43, S, None, None, ,  
12/07/2017 08:02, 26, 61, 15 ,35, 40, S, None, None, ,  
12/07/2017 07:53, 27, 60, 15 ,34, 40, S, None, None, ,  
12/07/2017 07:52, 27, 60, 15 ,34, 41, S, None, None, ,  
12/07/2017 07:42, 27, 60, 15 ,34, 41, S, None, None, ,  
12/07/2017 07:38, 27, 60, 15 ,34, 41, S, None, None, ,  
12/07/2017 07:32, 27, 59, 15 ,32, 40, S, None, None, ,  
12/07/2017 07:23, 27, 59, 15 ,33, 38, S, None, None, ,  
12/07/2017 07:22, 27, 59, 15 ,32, 38, S, None, None, ,  
12/07/2017 07:12, 27, 60, 15 ,30, 37, S, None, None, ,  
12/07/2017 07:08, 27, 59, 15 ,30, 39, S, None, None, ,  
12/07/2017 07:02, 27, 60, 15 ,32, 38, S, None, None, ,  
12/07/2017 06:54, 27, 60, 15 ,33, 40, S, None, None, ,  
12/07/2017 06:52, 27, 60, 15 ,33, 42, S, None, None, ,  
12/07/2017 06:42, 27, 61, 15 ,35, 42, S, None, None, ,  
12/07/2017 06:38, 27, 61, 15 ,35, 42, S, None, None, ,  
12/07/2017 06:32, 26, 62, 15 ,34, 42, S, None, None, ,  
12/07/2017 06:23, 26, 62, 15 ,34, 41, S, None, None, ,  
12/07/2017 06:22, 26, 61, 15 ,34, 41, S, None, None, ,  
12/07/2017 06:12, 26, 61, 15 ,32, 40, S, None, None, ,  
12/07/2017 06:09, 26, 61, 15 ,34, 40, S, None, None, ,  
12/07/2017 06:02, 27, 60, 15 ,32, 39, S, None, None, ,  
12/07/2017 05:53, 28, 59, 15 ,33, 39, S, None, None, ,  
12/07/2017 05:52, 27, 60, 15 ,34, 39, S, None, None, ,  
12/07/2017 05:42, 27, 60, 15 ,34, 40, S, None, None, ,  
12/07/2017 05:38, 26, 61, 15 ,31, 40, S, None, None, ,  
12/07/2017 05:32, 26, 62, 15 ,32, 41, S, None, None, ,  
12/07/2017 05:23, 26, 62, 15 ,34, 40, S, None, None, ,  
12/07/2017 05:22, 26, 62, 15 ,35, 40, S, None, None, ,  
12/07/2017 05:11, 26, 63, 15 ,34, 42, S, None, None, ,  
12/07/2017 05:08, 26, 63, 15 ,35, 42, S, None, None, ,  
12/07/2017 05:01, 26, 63, 15 ,34, 40, S, None, None, ,  
12/07/2017 04:53, 25, 64, 15 ,33, 40, S, None, None, ,  
12/07/2017 04:51, 26, 63, 15 ,35, 40, S, None, None, ,  
12/07/2017 04:41, 26, 63, 15 ,33, 43, S, None, None, ,  
12/07/2017 04:38, 26, 62, 15 ,35, 43, S, None, None, ,  
12/07/2017 04:31, 26, 63, 15 ,34, 39, S, None, None, ,  
12/07/2017 04:23, 26, 62, 15 ,32, 40, S, None, None, ,  
12/07/2017 04:21, 26, 61, 15 ,34, 40, S, None, None, ,  
12/07/2017 04:11, 27, 60, 15 ,34, 41, S, None, None, ,  
12/07/2017 04:08, 26, 61, 15 ,35, 41, S, None, None, ,  
12/07/2017 04:01, 26, 61, 15 ,34, 40, S, None, None, ,  
12/07/2017 03:53, 27, 60, 15 ,33, 39, S, None, None, ,  
12/07/2017 03:51, 27, 60, 15 ,32, 39, S, None, None, ,  
12/07/2017 03:41, 27, 60, 15 ,34, 40, S, None, None, ,  
12/07/2017 03:38, 27, 60, 15 ,34, 39, S, None, None, ,  
12/07/2017 03:31, 27, 59, 15 ,32, 39, S, None, None, ,  
12/07/2017 03:24, 27, 60, 15 ,34, 40, S, None, None, ,  
12/07/2017 03:21, 27, 60, 15 ,32, 40, S, None, None, ,  
12/07/2017 03:11, 27, 60, 15 ,33, 39, S, None, None, ,  
12/07/2017 03:08, 27, 60, 15 ,32, 37, S, None, None, ,  
12/07/2017 03:01, 27, 60, 15 ,32, 38, S, None, None, ,  
12/07/2017 02:53, 27, 61, 15 ,32, 39, S, None, None, ,  
12/07/2017 02:51, 26, 60, 15 ,30, 39, S, None, None, ,  
12/07/2017 02:41, 26, 61, 15 ,32, 40, S, None, None, ,  
12/07/2017 02:38, 26, 61, 15 ,33, 41, S, None, None, ,  
12/07/2017 02:31, 26, 61, 15 ,34, 41, S, None, None, ,  
12/07/2017 02:23, 26, 61, 15 ,32, 40, S, None, None, ,  
12/07/2017 02:21, 26, 61, 15 ,34, 40, S, None, None, ,  
12/07/2017 02:11, 27, 60, 15 ,32, 41, S, None, None, ,  
12/07/2017 02:09, 27, 60, 15 ,32, 39, S, None, None, ,  
12/07/2017 02:01, 27, 59, 15 ,32, 43, S, None, None, ,  
12/07/2017 01:53, 26, 60, 15 ,34, 40, S, None, None, ,  
12/07/2017 01:51, 27, 60, 15 ,32, 40, S, None, None, ,  
12/07/2017 01:41, 27, 59, 15 ,32, 40, S, None, None, ,  
12/07/2017 01:39, 27, 59, 15 ,32, 40, S, None, None, ,  
12/07/2017 01:31, 27, 60, 15 ,34, 40, S, None, None, ,  
12/07/2017 01:23, 27, 60, 15 ,32, 37, S, None, None, ,  
12/07/2017 01:21, 27, 60, 15 ,30, 37, S, None, None, ,  
12/07/2017 01:11, 27, 60, 15 ,32, 39, S, None, None, ,  
12/07/2017 01:08, 27, 60, 15 ,32, 39, S, None, None, ,  
12/07/2017 01:01, 27, 60, 15 ,32, 39, S, None, None, ,  
12/07/2017 00:53, 27, 60, 15 ,33, 37, S, None, None, ,  
12/07/2017 00:51, 27, 59, 15 ,32, 38, S, None, None, ,  
12/07/2017 00:41, 27, 59, 15 ,32, 40, S, None, None, ,  
12/07/2017 00:38, 27, 59, 15 ,32, 38, S, None, None, ,  
12/07/2017 00:31, 27, 59, 15 ,29, 36, S, None, None, ,  
12/07/2017 00:23, 27, 59, 15 ,31, 37, S, None, None, ,  
12/07/2017 00:21, 27, 59, 15 ,30, 37, S, None, None, ,  
12/07/2017 00:11, 27, 57, 14 ,30, 37, S, None, None, ,  
12/07/2017 00:08, 27, 58, 14 ,29, 37, S, None, None, ,  
12/07/2017 00:01, 27, 57, 14 ,29, 37, S, None, None, ,  
12/06/2017 23:53, 27, 57, 14 ,29, 36, S, None, None, ,  
12/06/2017 23:51, 27, 57, 14 ,29, 37, S, None, None, ,  
12/06/2017 23:41, 27, 57, 14 ,30, 38, S, None, None, ,  
12/06/2017 23:38, 27, 58, 14 ,30, 38, S, None, None, ,  
12/06/2017 23:31, 27, 58, 14 ,32, 37, S, None, None, ,  
12/06/2017 23:23, 27, 58, 14 ,32, 39, S, None, None, ,  
12/06/2017 23:21, 27, 57, 14 ,32, 39, S, None, None, ,  
12/06/2017 23:11, 28, 57, 14 ,29, 39, S, None, None, ,  
12/06/2017 23:08, 28, 57, 14 ,31, 38, S, None, None, ,  
12/06/2017 23:01, 28, 56, 14 ,31, 41, S, None, None, ,  
12/06/2017 22:54, 28, 55, 14 ,32, 39, S, None, None, ,  
12/06/2017 22:51, 29, 54, 14 ,32, 41, S, None, None, ,  
12/06/2017 22:41, 28, 56, 14 ,29, 40, S, None, None, ,  
12/06/2017 22:38, 28, 56, 14 ,31, 40, S, None, None, ,  
12/06/2017 22:31, 28, 55, 14 ,32, 37, S, None, None, ,  
12/06/2017 22:23, 28, 55, 14 ,29, 39, S, None, None, ,  
12/06/2017 22:21, 29, 54, 14 ,32, 39, S, None, None, ,  
12/06/2017 22:11, 28, 54, 14 ,30, 39, S, None, None, ,  
12/06/2017 22:08, 29, 54, 14 ,31, 39, S, None, None, ,  
12/06/2017 22:01, 29, 53, 14 ,30, 40, S, None, None, ,  
12/06/2017 21:53, 29, 54, 14 ,32, 39, S, None, None, ,  
12/06/2017 21:50, 28, 55, 14 ,29, 39, S, None, None, ,  
12/06/2017 21:40, 28, 55, 14 ,33, 40, S, None, None, ,  
12/06/2017 21:38, 28, 56, 14 ,32, 40, S, None, None, ,  
12/06/2017 21:30, 28, 57, 14 ,35, 40, S, None, None, ,  
12/06/2017 21:23, 28, 57, 14 ,34, 41, S, None, None, ,  
12/06/2017 21:20, 28, 56, 14 ,32, 40, S, None, None, ,  
12/06/2017 21:10, 27, 58, 15 ,34, 42, S, None, None, ,  
12/06/2017 21:08, 27, 59, 15 ,34, 42, S, None, None, ,  
12/06/2017 21:00, 27, 60, 15 ,32, 42, S, None, None, ,  
12/06/2017 20:53, 27, 58, 15 ,32, 39, S, None, None, ,  
12/06/2017 20:50, 28, 58, 15 ,32, 39, S, None, None, ,  
12/06/2017 20:40, 27, 59, 15 ,34, 39, S, None, None, ,  
12/06/2017 20:38, 27, 59, 15 ,32, 39, S, None, None, ,  
12/06/2017 20:30, 27, 59, 15 ,32, 39, S, None, None, ,  
12/06/2017 20:23, 27, 59, 15 ,32, 38, S, None, None, ,  
12/06/2017 20:20, 27, 58, 15 ,32, 38, S, None, None, ,  
12/06/2017 20:10, 27, 59, 15 ,32, 39, S, None, None, ,  
12/06/2017 20:08, 27, 59, 15 ,31, 39, S, None, None, ,  
12/06/2017 20:00, 27, 59, 15 ,32, 40, S, None, None, ,  
12/06/2017 19:53, 27, 60, 15 ,33, 40, S, None, None, ,  
12/06/2017 19:50, 27, 60, 15 ,34, 40, S, None, None, ,  
12/06/2017 19:40, 26, 60, 15 ,32, 40, S, None, None, ,  
12/06/2017 19:38, 26, 60, 15 ,33, 40, S, None, None, ,  
12/06/2017 19:30, 26, 60, 15 ,31, 40, S, None, None, ,  
12/06/2017 19:23, 27, 59, 14 ,32, 39, S, None, None, ,  
12/06/2017 19:20, 27, 59, 15 ,33, 39, S, None, None, ,  
12/06/2017 19:10, 27, 59, 15 ,34, 39, S, None, None, ,  
12/06/2017 19:08, 27, 60, 15 ,34, 39, S, None, None, ,  
12/06/2017 19:00, 26, 60, 15 ,32, 39, S, None, None, ,  
12/06/2017 18:53, 26, 61, 15 ,32, 38, S, None, None, ,  
12/06/2017 18:50, 26, 61, 15 ,32, 39, S, None, None, ,  
12/06/2017 18:40, 26, 61, 15 ,32, 41, S, None, None, ,  
12/06/2017 18:38, 26, 61, 15 ,34, 41, S, None, None, ,  
Change End Date:

Copyright © 1998-2015 Vaisala, Inc.
All Rights Reserved
Send comments about the data to:
SCAN Web ® is a registered trademark of Vaisala, Inc.
SCAN Web Version 6.0